Starlink 31236

operational
NORAD ID: 58841 Int'l Des: 2024-017 Owner: SPXS Country: US Constellation: starlink
LEOCIRCULAR

Starlink 31236について

説明を読み込み中...

リアルタイム位置

3D地球を読み込み中...

次回通過

高度履歴

Altitude vs Time

uPlot chart will show altitude changes over time

軌道要素

1 58841U 24017R 25350.08190199 .00006280 00000-0 22393-3 0 9990
2 58841 53.1595 232.8005 0001286 86.9964 273.1184 15.30208568107254
Epoch: Dec 16, 2025 • Age: 25 hours

現在のステータス

高度 492.1 km
速度 7.62 km/s
衛星直下点 -47.18°S, 22.66°W
打ち上げ日 Jan 24, 2024
運用期間 1.8 years
タイプ internet

技術仕様

分類 Payload
質量 730.00 kg
乾燥質量 700.00 kg
総質量 730.00 kg
長さ 0.30 m
直径 4.10 m
スパン 29.00 m
形状 Box + pan
製造者 SPXS
バスタイプ Starlink V2M
フェーズステータス In Orbit
所有者/国 SPXS/US

大規模コンステレーション

Loading constellations...